Location: Faicchio
(41.2833°N, 14.4833°E)
Time: 07:04:34
(UTC+00:00)

FENGYUN 3A - Pass Details

Date: 15 June 2025
Orbit: 820 x 834 km, 98.6° (Epoch: 16 July)

Event Time Altitude Azimuth Distance (km) Brightness Sun altitude
Rises 01:05:45 0° 14° (NNE) 3,362 8.2 -19.4°
Reaches altitude 10° 01:08:07 10° 15° (NNE) 2,425 7.2 -19.1°
Maximum altitude 01:13:30 85° 102° (ESE) 831 3.6 -18.6°
Enters shadow 01:16:14 30° 191° (S) 1,426 4.4 -18.4°
